Torna al catalogo

STARLINK-34689

AttivoComunicazioniSSO
NORAD 64949·PAYLOAD·🇺🇸 United States

Lanciato Jul 26, 2025 da Vandenberg Space Force Base

Loading…

Prossimi Passaggi (prossime 24 ore)

TLE

AggiornatoSource: CelesTrak SupGP

Epoca: Sep 15, 2026, 03:54 UTC

1 64949C 25158T   26258.16298611 -.00030017  00000+0 -93102-3 0  2588
2 64949  97.2844 116.5390 0001679  98.0628  59.9657 15.33480062    13

Traccia STARLINK-34689 in tempo reale con AllMySat

Download on the App Store